Kaktovik, AK

3:15 PM AKDT on July 28, 2016 (GMT -0800)
Barter Island LRRS

Weather History for PABA - November, 2012

Change the Weather History Date:

Thursday, November 1, 2012

  Actual Average Record
Temperature  
Mean Temperature 16 °F -  
Max Temperature 21 °F 13 °F 34 °F (2002)
Min Temperature 10 °F 5 °F -11 °F (2004)
Degree Days  
Heating Degree Days 50    
Moisture  
Dew Point 16 °F    
Average Humidity 93    
Maximum Humidity 100    
Minimum Humidity 82    
Precipitation  
Precipitation 0.00 in - - ()
Sea Level Pressure  
Sea Level Pressure 30.22 in    
Wind  
Wind Speed 19 mph (WSW)    
Max Wind Speed 39 mph    
Max Gust Speed 45 mph    
Visibility 6 miles    
Events Snow    
Averages and records for this station are not official NWS values.
T = Trace of Precipitation, MM = Missing Value Source: NWS Daily Summary

Daily Weather History Graph

Daily Weather History Graph

Search for Another Location

Airport or City:

Trip Planner

Search our weather history database for the weather conditions in past years. The results will help you decide how hot, cold, wet, or windy it might be!

Date:

Astronomy

Nov. 01, 2012 Rise Set
Actual Time 10:10 AM AKDT 4:24 PM AKDT
Civil Twilight 8:54 AM AKDT 5:39 PM AKDT
Nautical Twilight 7:39 AM AKDT 6:54 PM AKDT
Astronomical Twilight 6:28 AM AKDT 8:05 PM AKDT
Moon No Moon Rise No Moon Set
Length of Visible Light 8h 45m
Length of Day
6h 13m
Waning Gibbous, 92% of the Moon is Illuminated
Nov 1
Waning Gibbous
Nov 6
Last Quarter
Nov 13
New
Nov 20
First Quarter
Nov 28
Full

Hourly Weather History & Observations

Time (AKDT) Temp. Windchill Dew Point Humidity Pressure Visibility Wind Dir Wind Speed Gust Speed Precip Events Conditions
12:01 AM 21.9 °F 13.4 °F 17.1 °F 82% 30.43 in 10.0 mi Variable 6.9 mph - 0.00 in Snow Light Snow
12:39 AM 21.2 °F 13.6 °F 17.6 °F 86% 30.42 in 5.0 mi WSW 5.8 mph - 0.00 in Snow Light Snow
1:01 AM 19.9 °F 8.6 °F 17.1 °F 89% 30.42 in 6.0 mi WSW 10.4 mph - 0.00 in Snow Light Snow
1:58 AM 17.6 °F 3.7 °F 17.6 °F 100% 30.41 in 9.0 mi WSW 13.8 mph - 0.00 in Snow Light Snow
2:01 AM 18.0 °F 4.2 °F 17.1 °F 96% 30.41 in 9.0 mi WSW 13.8 mph - 0.00 in Snow Light Snow
3:01 AM 17.6 °F 3.2 °F 17.6 °F 100% 30.40 in 9.0 mi West 15.0 mph - 0.00 in Snow Light Snow
3:30 AM 18.0 °F 3.6 °F 17.1 °F 96% 30.39 in 3.0 mi WSW 15.0 mph - 0.00 in Snow Light Snow
4:01 AM 17.6 °F 3.2 °F 15.8 °F 93% 30.38 in 2.5 mi WSW 15.0 mph - 0.00 in Snow Light Snow
4:10 AM 17.6 °F 1.3 °F 17.6 °F 100% 30.38 in 2.5 mi WSW 19.6 mph - 0.00 in Snow Light Snow
4:21 AM 17.6 °F 2.7 °F 17.6 °F 100% 30.38 in 5.0 mi WSW 16.1 mph - 0.00 in Snow Light Snow
4:32 AM 17.6 °F 2.2 °F 15.8 °F 93% 30.38 in 9.0 mi West 17.3 mph - 0.00 in Snow Light Snow
4:50 AM 17.6 °F 1.7 °F 15.8 °F 93% 30.37 in 10.0 mi WSW 18.4 mph - 0.00 in   Mostly Cloudy
5:01 AM 16.0 °F -0.9 °F 15.1 °F 96% 30.38 in 9.0 mi West 19.6 mph - 0.00 in Snow Light Snow
6:01 AM 14.0 °F -3.4 °F 12.9 °F 95% 30.35 in 10.0 mi WSW 19.6 mph - 0.00 in   Overcast
7:01 AM 15.1 °F -1.6 °F 12.9 °F 91% 30.34 in 9.0 mi WSW 18.4 mph - 0.00 in Snow Light Snow
8:01 AM 14.0 °F -3.0 °F 12.9 °F 95% 30.32 in 10.0 mi WSW 18.4 mph - 0.00 in   Clear
9:01 AM 14.0 °F -3.9 °F 12.0 °F 92% 30.31 in 10.0 mi West 20.7 mph - N/A   Clear
10:01 AM 12.9 °F -4.9 °F 12.0 °F 96% 30.29 in 10.0 mi WSW 19.6 mph - N/A   Scattered Clouds
10:13 AM 14.0 °F -3.9 °F 12.2 °F 93% 30.29 in 10.0 mi WSW 20.7 mph - N/A   Mostly Cloudy
10:58 AM 12.2 °F -5.3 °F 8.6 °F 85% 30.27 in 10.0 mi WSW 18.4 mph - N/A   Partly Cloudy
11:01 AM 10.9 °F -7.5 °F 9.0 °F 92% 30.27 in 10.0 mi WSW 19.6 mph - N/A   Partly Cloudy
12:01 PM 14.0 °F -3.0 °F 12.9 °F 95% 30.25 in 10.0 mi WSW 18.4 mph - N/A   Partly Cloudy
1:01 PM 16.0 °F -1.3 °F 14.0 °F 92% 30.23 in 10.0 mi WSW 20.7 mph - N/A   Scattered Clouds
1:15 PM 17.6 °F 0.1 °F 14.0 °F 86% 30.22 in 10.0 mi WSW 23.0 mph - N/A   Mostly Cloudy
1:54 PM 15.8 °F -0.2 °F 12.2 °F 86% 30.21 in 10.0 mi WSW 17.3 mph - N/A   Scattered Clouds
2:01 PM 16.0 °F -0.4 °F 14.0 °F 92% 30.21 in 10.0 mi WSW 18.4 mph - N/A   Scattered Clouds
3:01 PM 17.1 °F 0.1 °F 14.0 °F 88% 30.18 in 9.0 mi WSW 20.7 mph - N/A   Scattered Clouds
3:28 PM 17.6 °F -2.5 °F 15.8 °F 93% 30.18 in 2.0 mi West 32.2 mph 35.7 mph 0.00 in Snow Light Snow
3:47 PM 19.4 °F 0.8 °F 15.8 °F 86% 30.17 in 3.0 mi West 28.8 mph 35.7 mph 0.00 in   Partly Cloudy
4:01 PM 19.0 °F 0.6 °F 16.0 °F 88% 30.17 in 5.0 mi West 27.6 mph 35.7 mph 0.00 in   Partly Cloudy
4:26 PM 19.4 °F -0.0 °F 15.8 °F 86% 30.15 in 1.8 mi West 32.2 mph 36.8 mph 0.00 in Snow Light Snow
4:38 PM 17.6 °F -1.6 °F 15.8 °F 93% 30.15 in 1.8 mi West 28.8 mph 36.8 mph 0.00 in Snow Light Snow
4:44 PM 17.6 °F -1.3 °F 15.8 °F 93% 30.15 in 3.0 mi West 27.6 mph 35.7 mph 0.00 in Snow Light Snow
5:01 PM 18.0 °F 0.6 °F 15.1 °F 88% 30.14 in 6.0 mi West 23.0 mph 31.1 mph 0.00 in Snow Light Snow
5:16 PM 17.6 °F 0.1 °F 15.8 °F 93% 30.13 in 6.0 mi WSW 23.0 mph - 0.00 in Snow Light Snow
6:01 PM 17.6 °F 0.5 °F 15.8 °F 93% 30.11 in 4.0 mi WSW 21.9 mph - 0.00 in Snow Light Snow
7:01 PM 17.6 °F -1.3 °F 15.8 °F 93% 30.09 in 3.0 mi West 27.6 mph 32.2 mph 0.00 in Snow Light Snow
7:12 PM 17.6 °F -1.3 °F 17.6 °F 100% 30.09 in 3.0 mi West 27.6 mph 35.7 mph 0.00 in Snow Light Snow
7:24 PM 19.0 °F 1.3 °F 17.1 °F 92% 30.09 in 3.0 mi West 25.3 mph 35.7 mph 0.00 in   Overcast
8:01 PM 19.0 °F 0.0 °F 17.1 °F 92% 30.07 in 4.0 mi West 29.9 mph 36.8 mph 0.00 in Snow Blowing Snow
8:18 PM 19.4 °F 0.8 °F 17.6 °F 93% 30.07 in 5.0 mi West 28.8 mph 34.5 mph N/A Snow Blowing Snow
8:43 PM 19.4 °F -0.3 °F 17.6 °F 93% 30.07 in 2.5 mi West 33.4 mph 38.0 mph 0.00 in   Overcast
9:01 PM 19.0 °F -0.8 °F 18.0 °F 96% 30.06 in 2.5 mi West 33.4 mph - 0.00 in   Overcast
9:29 PM 19.4 °F -0.3 °F 17.6 °F 93% 30.05 in 2.5 mi West 33.4 mph 38.0 mph 0.00 in   Overcast
9:43 PM 19.4 °F -0.0 °F 17.6 °F 93% 30.04 in 1.8 mi West 32.2 mph - 0.00 in Snow Blowing Snow
9:51 PM 19.4 °F 0.2 °F 17.6 °F 93% 30.04 in 2.0 mi West 31.1 mph 42.6 mph 0.00 in Snow Blowing Snow
10:01 PM 19.0 °F -1.1 °F 18.0 °F 96% 30.04 in 2.5 mi West 34.5 mph 39.1 mph 0.00 in Snow Blowing Snow
10:28 PM 19.4 °F -0.8 °F 19.4 °F 100% 30.04 in 1.5 mi West 35.7 mph 44.9 mph 0.00 in   Mostly Cloudy
11:01 PM 19.9 °F -0.3 °F 19.0 °F 96% 30.03 in 1.5 mi West 36.8 mph 43.7 mph 0.00 in Snow Blowing Snow
11:22 PM 21.2 °F 1.4 °F 19.4 °F 93% 30.02 in 1.2 mi West 36.8 mph 44.9 mph N/A Snow Blowing Snow
11:30 PM 21.2 °F 0.9 °F 19.4 °F 93% 30.02 in 1.5 mi West 39.1 mph 44.9 mph N/A Snow Blowing Snow